WS6A-13 Weather Reports


time (UTC)temp
F
wind
direction
speed
knots
gust
knots
rain 1hr
in
rain 24hr
in
rain mn
in
humidity
%
barometer
mb
20260506191504 59 55 0.0 5.2 0.00 1.42 0.54 59 1011.7
20260506190004 59 65 0.9 2.6 0.00 1.42 0.54 59 1011.8
20260506183003 59 232 0.0 6.1 0.00 1.42 0.54 60 1011.5
20260506181504 60 51 0.9 4.3 0.00 1.42 0.54 59 1011.5
20260506174504 60 251 0.0 5.2 0.00 1.42 0.54 61 1011.8
20260506171504 59 70 0.9 5.2 0.00 1.42 0.54 59 1011.9
20260506170004 58 17 0.0 4.3 0.00 1.42 0.54 60 1012.0
20260506164503 58 70 0.0 2.6 0.00 1.42 0.54 63 1012.1
20260506163004 58 48 0.0 2.6 0.00 1.42 0.54 60 1012.0
20260506161504 57 52 0.0 5.2 0.00 1.42 0.54 68 1011.8
20260506160004 56 49 0.0 6.1 0.00 1.42 0.54 67 1011.8
20260506154504 55 53 0.0 2.6 0.00 1.42 0.54 66 1012.2
20260506153004 55 38 0.0 2.6 0.00 1.42 0.54 69 1012.1
20260506151504 54 42 0.0 6.1 0.00 1.42 0.54 71 1011.5
20260506150004 54 46 0.0 6.1 0.01 1.42 0.54 73 1011.0
20260506144503 52 72 0.0 2.6 0.01 1.42 0.54 77 1011.0
20260506143003 51 41 0.0 2.6 0.01 1.42 0.54 77 1010.8
20260506141504 50 51 0.0 4.3 0.01 1.42 0.54 82 1010.8
20260506134504 49 59 0.0 2.6 0.00 1.41 0.53 87 1010.9
20260506131504 48 41 0.0 2.6 0.00 1.41 0.53 88 1010.5
20260506130005 47 43 0.0 2.6 0.00 1.41 0.53 89 1010.3
20260506124503 47 55 0.0 1.7 0.00 1.41 0.53 90 1009.8
20260506121503 46 358 0.0 2.6 0.00 1.41 0.53 92 1009.9
20260506120004 45 65 0.0 2.6 0.00 1.41 0.53 93 1009.4
20260506114504 45 39 0.0 0.0 0.00 1.42 0.53 93 1008.7
20260506113004 45 42 0.0 0.9 0.00 1.42 0.53 93 1008.4
20260506111504 45 48 0.0 0.9 0.00 1.42 0.53 94 1008.6
20260506110004 45 48 0.0 0.0 0.00 1.42 0.53 94 1008.3
20260506104504 45 48 0.0 0.0 0.00 1.42 0.53 94 1008.4
20260506103004 45 48 0.0 0.9 0.00 1.43 0.53 94 1007.4
20260506101503 45 55 0.0 2.6 0.00 1.44 0.53 94 1007.3
20260506094504 45 19 0.0 0.0 0.00 1.46 0.53 94 1007.2
20260506093004 45 350 0.0 0.0 0.00 1.49 0.53 94 1007.0
20260506091504 45 350 0.0 0.0 0.00 1.49 0.53 94 1006.7
20260506090004 45 29 0.0 1.7 0.01 1.49 0.53 94 1006.7
20260506084504 45 313 0.0 7.0 0.03 1.49 0.53 94 1006.7
20260506083003 45 36 0.0 4.3 0.04 1.49 0.53 94 1006.8
20260506081504 45 47 0.0 4.3 0.08 1.49 0.53 94 1006.5
20260506073004 46 26 1.7 6.1 0.08 1.46 0.49 93 1006.5
20260506071504 47 13 0.0 1.7 0.05 1.42 0.45 94 1006.3
20260506061504 48 276 0.0 5.2 0.15 1.37 0.40 94 1005.6
20260506043004 52 66 0.0 2.6 0.07 1.03 0.06 94 1005.5
20260506041504 53 46 0.0 0.0 0.02 0.98 0.01 94 1005.7
20260506040004 53 105 0.0 0.0 0.02 0.97 0.00 94 1005.1
20260506034504 54 105 0.0 0.0 0.03 0.97 0.97 93 1005.0
20260506031503 57 32 0.0 0.0 0.11 0.96 0.96 94 1005.2
20260506030004 58 32 0.0 0.0 0.14 0.95 0.95 93 1005.3
20260506024504 60 300 0.0 1.7 0.15 0.94 0.94 95 1005.7
20260506023004 60 300 0.0 0.0 0.13 0.91 0.91 95 1006.0
20260506021504 60 300 0.0 0.0 0.11 0.85 0.85 95 1006.0
20260506020004 60 300 0.0 0.0 0.13 0.81 0.81 95 1006.0
20260506014504 60 300 0.0 0.0 0.14 0.79 0.79 95 1005.8
20260506011504 60 300 0.0 0.0 0.12 0.74 0.74 95 1005.7
20260506010004 60 300 0.0 0.0 0.07 0.68 0.68 95 1005.7
20260506004514 60 300 0.0 0.0 0.05 0.65 0.65 95 1005.4
20260506001504 61 300 0.0 0.0 0.03 0.62 0.62 94 1005.1
20260506000004 61 300 0.0 0.0 0.02 0.61 0.61 94 1005.2
20260505234504 61 300 0.0 0.0 0.01 0.60 0.60 94 1005.3
20260505233019 61 300 0.0 0.0 0.02 0.60 0.60 95 1005.2
20260505231504 61 300 0.0 0.0 0.03 0.59 0.59 94 1005.3
20260505230004 61 300 0.0 0.0 0.04 0.59 0.59 94 1005.6
20260505224503 61 300 0.0 0.0 0.04 0.59 0.59 94 1005.7
20260505223005 61 78 0.0 2.6 0.04 0.58 0.58 94 1006.0
20260505221504 61 112 0.0 2.6 0.02 0.56 0.56 94 1006.2
20260505214504 61 311 0.0 0.0 0.02 0.55 0.55 93 1006.1
20260505213004 61 311 0.0 0.9 0.03 0.54 0.54 93 1006.1
20260505211503 62 252 0.0 0.0 0.05 0.54 0.54 93 1006.1
20260505210004 61 252 0.0 0.0 0.08 0.54 0.54 93 1006.1
20260505204504 61 252 0.0 0.0 0.30 0.53 0.53 92 1006.2
20260505203004 61 252 0.0 1.7 0.42 0.51 0.51 91 1006.2
20260505201504 61 271 0.0 0.9 0.40 0.49 0.49 90 1006.2
20260505200004 62 260 0.0 2.6 0.37 0.46 0.46 88 1006.5
20260505194503 65 240 0.9 4.3 0.14 0.23 0.23 82 1006.5